Wind_Speed
32 32 27 25 26 24 24 23 21 20 17 16 17 20 23 26 28 29 32 34 35 36 36 35 35 34 34 35 36 37 36 36 36 36 37 37 38 38 39 40 41 42 43 44
34 31 26 29 29 27 26 25 24 22 19 17 17 17 22 27 31 33 34 35 35 35 34 33 33 33 34 35 35 36 36 36 37 38 38 39 40 41 42 43 44 45 46 47
33 27 29 31 30 28 26 25 25 25 23 22 20 21 23 29 33 35 36 35 34 32 31 31 32 33 33 34 34 35 36 37 39 40 41 42 43 45 46 47 48 49 50 52
32 28 31 32 31 29 26 23 24 26 28 28 27 28 29 33 36 37 37 35 32 30 30 32 34 33 33 33 34 35 37 38 40 42 44 45 47 48 49 51 52 54 56 58
28 26 29 31 29 28 26 23 24 27 30 32 33 35 35 38 40 39 37 35 33 33 33 35 35 35 34 35 35 36 39 41 44 46 47 48 50 51 53 55 56 59 61 63
25 25 29 29 29 27 24 24 26 30 33 35 33 37 40 41 41 40 39 38 37 36 37 38 38 38 38 38 38 38 41 44 46 48 50 51 53 54 56 58 60 62 64 65
25 26 27 28 29 28 27 28 31 34 35 35 30 36 39 40 42 41 41 40 39 39 41 42 41 42 42 41 40 40 43 46 48 50 52 53 55 56 58 60 62 63 65 65
28 28 26 26 27 26 27 30 32 34 33 30 30 34 35 35 38 38 39 40 40 41 42 44 45 45 43 41 41 42 44 46 49 51 52 54 56 58 60 61 62 63 63 62
29 30 26 27 26 26 27 29 29 33 33 33 32 33 35 34 33 34 36 37 36 36 38 41 44 43 41 41 42 43 44 48 50 52 53 55 57 59 60 61 63 61 58 54
30 31 28 29 31 31 31 30 30 34 35 36 36 36 37 36 35 34 34 34 34 33 33 34 37 39 40 40 41 43 45 49 52 53 56 58 60 60 60 61 59 54 50 45
35 35 29 31 35 32 30 30 32 35 36 36 36 34 32 36 38 40 41 40 39 38 37 37 38 40 40 40 41 43 47 51 53 56 59 61 61 60 60 58 52 47 44 40
40 40 37 33 35 35 33 30 29 33 35 35 37 35 32 35 38 40 41 41 41 40 40 39 38 39 39 40 41 45 50 53 56 59 61 61 59 59 58 52 47 42 39 37
43 44 43 38 34 37 39 35 32 31 32 35 39 39 37 38 40 41 42 42 43 43 43 41 39 38 39 40 43 48 52 55 58 61 61 60 59 58 53 46 41 38 37 38
49 49 48 47 41 39 42 43 40 37 38 39 42 42 40 40 40 41 42 43 45 45 44 42 39 37 38 42 46 50 54 58 60 61 60 58 57 54 46 41 39 38 38 40
52 54 54 53 50 47 45 46 46 45 44 44 43 43 41 41 42 42 43 44 45 44 42 39 36 36 39 43 48 53 56 59 60 60 57 57 54 47 41 39 38 39 41 44
51 56 58 58 57 55 53 50 50 51 51 50 48 46 45 46 45 43 43 43 41 40 36 33 33 36 41 46 51 55 58 59 58 57 55 54 48 42 39 38 39 42 46 49
45 51 57 59 60 61 61 55 54 54 55 56 55 52 49 48 47 46 45 44 44 39 35 33 34 38 44 49 53 55 56 56 56 54 53 48 42 39 38 39 42 46 49 52
43 46 51 55 57 62 60 58 59 58 58 58 59 57 55 52 49 47 46 45 41 38 34 35 39 42 45 49 51 52 53 53 52 51 47 42 38 37 39 42 46 49 51 52
41 42 45 49 52 56 55 55 55 56 59 59 60 61 60 58 54 51 50 47 40 37 35 37 39 42 45 47 48 49 50 50 48 46 41 37 36 38 41 45 47 49 51 51
35 37 41 44 48 51 50 50 49 49 51 52 55 57 58 58 56 53 49 45 41 36 34 36 39 41 43 45 45 46 46 46 44 40 36 35 37 40 43 45 47 48 49 49
31 34 37 40 44 46 46 45 43 43 43 42 42 44 45 47 47 45 42 37 35 34 33 35 38 40 41 41 41 42 43 41 37 33 33 35 38 41 43 44 45 46 47 47
28 31 34 37 41 43 42 42 41 38 36 36 35 36 36 35 36 34 33 31 29 29 30 33 35 36 37 38 39 39 37 34 31 31 33 36 39 40 42 43 43 44 44 45
23 25 27 30 33 34 35 36 36 35 33 31 31 32 31 28 27 26 27 24 23 26 29 31 32 33 33 35 35 33 30 28 29 31 34 37 38 39 40 41 42 42 43 43
18 19 20 21 21 21 21 23 24 26 25 22 21 22 20 20 21 22 21 20 22 25 26 28 29 29 31 31 29 26 25 26 29 32 35 36 37 38 38 39 40 41 42 41
12 11 11 11 10 8 9 11 13 14 14 15 14 14 14 16 17 17 18 19 21 23 24 25 26 27 27 25 22 21 23 26 30 32 34 36 36 36 37 37 38 39 40 39
8 6 5 6 6 5 4 6 7 8 9 9 10 12 13 14 15 15 16 18 20 21 21 22 23 23 20 18 17 20 23 27 30 32 34 35 35 36 36 36 37 38 38 37
Wind_Direction
240 241 242 245 246 244 243 242 233 226 227 243 253 254 250 253 260 270 281 288 294 298 302 306 311 314 316 316 315 316 317 316 315 313 312 311 311 312 311 310 308 306 303 301
240 242 240 241 244 245 245 246 240 230 226 242 252 252 249 252 259 269 277 283 288 292 294 298 303 307 310 312 314 316 316 315 314 313 313 313 313 312 311 310 308 305 302 299
243 239 237 239 242 243 244 246 240 231 222 231 242 245 245 249 255 263 271 279 284 286 289 293 298 301 304 309 313 315 315 315 315 316 316 315 314 313 311 308 306 303 300 298
241 237 238 239 239 239 238 238 237 236 230 228 235 243 245 251 256 261 269 276 282 285 287 291 295 295 299 306 311 314 316 317 318 318 317 315 314 312 310 307 305 303 301 300
240 236 237 238 236 237 238 235 238 243 242 235 233 242 245 251 256 262 269 276 280 284 287 288 289 289 294 301 308 313 316 318 318 318 316 315 313 311 309 307 305 304 303 302
239 234 235 236 231 229 233 238 243 247 250 248 239 241 243 249 257 263 268 272 277 281 284 285 284 285 288 295 302 309 313 316 317 317 315 314 312 311 309 308 306 305 304 303
241 236 237 238 234 228 228 236 243 248 251 255 250 245 246 248 254 259 265 269 273 276 278 280 280 280 284 290 296 303 308 313 315 315 314 313 312 310 309 308 306 305 303 302
241 236 236 237 236 234 232 238 245 253 259 262 254 249 247 247 253 259 264 268 272 274 276 276 278 278 282 287 292 298 305 311 313 314 313 312 311 309 308 307 306 305 304 303
246 240 232 231 224 225 230 238 248 256 259 261 256 251 248 246 250 258 265 270 275 278 281 279 280 280 283 288 292 298 305 310 312 312 312 311 310 310 309 308 308 307 306 305
247 247 228 224 224 224 230 234 243 249 254 256 257 254 250 251 256 263 270 276 281 283 285 284 283 283 283 289 295 300 306 309 311 312 312 312 311 311 310 310 310 309 309 307
243 246 234 221 224 229 232 234 239 246 249 251 254 255 256 256 258 263 268 274 280 283 285 286 288 283 284 290 297 303 307 310 311 312 313 312 312 312 312 312 310 310 310 309
245 249 247 233 225 227 234 239 241 245 248 249 252 255 257 261 262 264 267 271 275 280 284 287 286 284 287 293 300 305 309 311 312 313 313 313 312 312 312 311 309 309 309 310
245 250 253 249 236 228 231 237 242 245 247 247 249 253 257 260 263 265 267 270 274 277 282 283 283 285 289 296 303 308 311 312 313 313 313 313 312 313 311 308 308 308 309 311
246 249 253 253 249 240 234 235 239 242 245 247 248 252 256 260 263 264 266 270 272 275 278 278 280 284 291 301 307 311 312 313 313 313 312 312 312 312 309 306 306 308 309 311
244 248 250 253 254 251 245 241 240 242 246 250 255 257 259 261 263 265 267 270 271 271 272 274 280 289 299 305 309 311 312 312 312 312 312 312 312 310 306 305 306 308 310 312
244 246 248 250 252 254 253 250 246 246 247 251 255 257 260 261 262 265 269 272 272 272 273 277 284 296 304 307 309 310 310 311 311 312 311 312 310 307 305 306 308 310 312 314
245 246 248 249 250 252 253 254 254 252 252 252 254 257 260 263 266 269 272 275 276 275 279 288 297 305 308 308 309 309 310 310 311 311 311 310 307 305 306 308 310 313 315 316
249 248 249 250 249 250 253 253 252 253 254 254 255 257 260 263 267 272 276 278 276 278 287 296 304 308 307 307 308 309 310 311 310 310 310 308 306 306 309 311 313 315 317 318
254 251 251 251 251 252 251 253 252 252 252 253 255 257 259 261 265 269 274 276 276 281 289 300 305 305 305 306 308 310 310 310 309 309 308 306 307 310 312 314 316 319 320 321
255 253 252 252 253 253 254 253 253 254 254 253 255 256 259 261 265 270 274 274 273 282 294 301 302 302 304 306 308 309 308 308 309 308 306 308 310 313 316 318 320 322 323 323
255 254 254 254 254 254 255 255 254 254 255 256 257 259 260 263 264 266 268 269 276 286 294 298 299 301 304 306 307 307 307 308 307 306 308 311 314 317 320 322 324 325 325 325
259 258 259 259 258 257 256 255 254 255 256 257 257 256 255 254 254 258 263 269 279 288 293 295 298 301 304 305 306 307 307 307 306 308 312 316 319 322 325 327 328 328 328 328
268 267 265 264 264 262 256 253 251 252 252 253 253 248 242 242 248 258 268 275 282 287 291 295 299 301 303 304 306 307 306 306 309 313 317 321 324 327 330 331 332 332 332 332
272 275 273 272 265 257 253 246 241 241 243 242 237 233 237 247 256 265 270 277 282 287 291 296 299 301 303 306 307 306 306 309 313 317 322 326 330 333 335 336 336 336 336 335
274 273 269 267 251 246 228 225 223 223 225 228 226 231 242 250 259 267 273 278 283 287 292 296 299 303 306 307 306 307 310 314 319 323 328 332 336 339 339 339 339 339 339 339
256 252 239 213 202 189 180 180 185 202 209 220 230 231 241 252 259 266 272 277 283 287 292 297 302 306 307 306 307 311 316 321 325 330 335 338 341 342 342 342 342 343 344 345
Height
5849 5852 5856 5859 5859 5861 5861 5862 5865 5867 5866 5865 5864 5864 5865 5865 5864 5864 5863 5862 5861 5860 5858 5856 5855 5854 5851 5850 5847 5845 5842 5839 5836 5832 5829 5825 5821 5817 5814 5810 5805 5801 5797 5793
5842 5847 5851 5850 5851 5853 5855 5856 5858 5861 5861 5860 5859 5859 5860 5860 5860 5860 5860 5860 5859 5858 5856 5855 5853 5850 5848 5846 5843 5839 5835 5832 5829 5825 5821 5817 5813 5809 5805 5800 5796 5791 5787 5782
5836 5842 5841 5842 5843 5845 5848 5850 5853 5854 5855 5855 5856 5856 5855 5855 5855 5855 5855 5856 5856 5855 5853 5852 5850 5847 5844 5841 5837 5833 5829 5825 5821 5817 5812 5808 5804 5800 5795 5791 5786 5782 5776 5771
5827 5833 5834 5834 5836 5838 5840 5844 5846 5846 5848 5849 5852 5851 5850 5848 5848 5849 5850 5851 5851 5850 5849 5847 5845 5842 5839 5835 5831 5827 5822 5818 5813 5809 5804 5800 5796 5791 5786 5781 5775 5769 5763 5757
5822 5826 5826 5827 5831 5832 5834 5837 5838 5839 5840 5842 5844 5844 5844 5840 5840 5842 5843 5844 5844 5843 5842 5841 5839 5836 5833 5829 5824 5820 5815 5810 5805 5801 5796 5791 5787 5781 5776 5770 5763 5757 5749 5742
5816 5818 5818 5821 5823 5825 5827 5830 5831 5832 5832 5833 5837 5837 5836 5834 5834 5835 5836 5837 5836 5836 5835 5834 5832 5829 5825 5822 5817 5812 5807 5802 5798 5793 5788 5783 5777 5771 5765 5758 5751 5744 5736 5728
5809 5811 5812 5815 5816 5818 5820 5822 5823 5823 5823 5825 5830 5828 5828 5829 5828 5828 5829 5829 5829 5828 5828 5827 5824 5821 5818 5815 5811 5806 5801 5796 5791 5786 5780 5774 5768 5761 5754 5747 5739 5732 5723 5715
5800 5804 5807 5808 5810 5813 5814 5815 5816 5816 5817 5819 5820 5819 5820 5821 5821 5821 5821 5821 5821 5821 5820 5818 5815 5812 5809 5806 5803 5798 5794 5789 5784 5778 5772 5766 5759 5752 5744 5736 5728 5719 5710 5702
5792 5796 5800 5801 5803 5805 5806 5807 5810 5810 5810 5810 5811 5811 5811 5812 5813 5814 5814 5814 5813 5813 5811 5809 5806 5803 5801 5798 5795 5791 5786 5781 5776 5770 5764 5757 5749 5741 5733 5724 5715 5706 5697 5689
5783 5785 5792 5795 5796 5796 5798 5800 5802 5802 5802 5802 5802 5802 5803 5806 5807 5807 5806 5806 5805 5805 5803 5801 5799 5796 5793 5790 5786 5782 5778 5773 5768 5761 5754 5746 5738 5729 5720 5711 5702 5693 5685 5678
5774 5776 5781 5786 5787 5790 5792 5793 5793 5794 5794 5795 5795 5797 5798 5799 5800 5799 5799 5798 5798 5797 5796 5794 5791 5788 5785 5782 5778 5774 5769 5765 5758 5751 5742 5734 5726 5717 5708 5699 5691 5683 5676 5669
5767 5769 5771 5776 5781 5783 5784 5785 5786 5786 5786 5787 5788 5792 5792 5792 5792 5791 5791 5791 5791 5790 5788 5786 5784 5780 5777 5773 5769 5765 5760 5755 5747 5739 5731 5723 5714 5706 5697 5689 5682 5675 5668 5661
5760 5762 5763 5768 5776 5777 5777 5777 5778 5778 5779 5779 5779 5783 5782 5782 5783 5783 5784 5784 5783 5782 5780 5778 5775 5771 5767 5764 5760 5756 5750 5743 5736 5728 5720 5712 5703 5695 5687 5680 5673 5667 5660 5654
5754 5754 5756 5758 5763 5767 5768 5769 5770 5770 5769 5770 5770 5772 5773 5772 5773 5774 5774 5774 5773 5772 5771 5768 5765 5762 5758 5754 5750 5745 5739 5732 5725 5717 5709 5701 5694 5686 5678 5671 5665 5659 5652 5646
5743 5744 5745 5747 5751 5755 5758 5761 5762 5761 5761 5761 5762 5763 5765 5765 5764 5764 5764 5764 5762 5761 5759 5757 5754 5751 5748 5744 5740 5734 5728 5721 5714 5707 5699 5691 5684 5676 5669 5663 5657 5651 5644 5636
5731 5731 5732 5735 5739 5741 5744 5749 5752 5753 5753 5752 5753 5755 5757 5757 5756 5755 5755 5754 5752 5750 5748 5745 5743 5741 5738 5734 5729 5724 5717 5711 5704 5696 5689 5681 5674 5667 5661 5655 5649 5642 5634 5626
5718 5718 5718 5721 5726 5726 5729 5737 5741 5742 5743 5744 5745 5748 5748 5749 5748 5748 5747 5746 5744 5741 5739 5736 5733 5731 5729 5725 5719 5713 5707 5700 5694 5687 5679 5672 5665 5659 5653 5647 5640 5632 5624 5615
5706 5706 5705 5708 5712 5711 5719 5723 5726 5729 5731 5733 5735 5737 5739 5741 5740 5739 5739 5738 5736 5732 5730 5728 5726 5723 5719 5715 5709 5703 5697 5691 5685 5678 5671 5664 5658 5652 5646 5639 5631 5622 5613 5603
5692 5693 5693 5695 5696 5697 5703 5707 5711 5714 5717 5721 5723 5726 5728 5731 5731 5730 5730 5730 5727 5724 5722 5720 5717 5714 5710 5706 5700 5694 5689 5683 5677 5670 5664 5657 5652 5645 5638 5631 5622 5612 5602 5592
5680 5681 5683 5683 5683 5685 5691 5694 5698 5701 5703 5708 5711 5714 5717 5719 5721 5721 5721 5720 5718 5716 5714 5712 5709 5706 5702 5697 5692 5687 5682 5676 5670 5663 5657 5652 5646 5639 5631 5622 5612 5602 5592 5583
5670 5671 5671 5672 5671 5673 5678 5681 5686 5691 5694 5697 5700 5703 5706 5709 5711 5711 5710 5709 5708 5708 5706 5704 5702 5698 5694 5689 5685 5680 5675 5669 5663 5657 5652 5646 5639 5631 5622 5613 5603 5593 5584 5574
5661 5661 5661 5661 5661 5665 5668 5671 5676 5681 5685 5688 5690 5692 5695 5697 5698 5700 5700 5700 5700 5700 5699 5698 5695 5691 5687 5683 5678 5673 5668 5663 5658 5653 5647 5640 5633 5624 5614 5605 5595 5586 5576 5566
5653 5653 5652 5652 5654 5655 5658 5662 5666 5671 5676 5679 5681 5684 5686 5688 5690 5691 5693 5694 5694 5694 5693 5691 5687 5684 5681 5677 5672 5667 5662 5658 5653 5648 5641 5634 5625 5616 5607 5598 5588 5579 5569 5559
5646 5645 5644 5644 5644 5647 5650 5654 5659 5664 5669 5673 5675 5678 5680 5682 5684 5686 5688 5688 5688 5688 5686 5684 5681 5678 5675 5670 5666 5662 5658 5654 5649 5643 5636 5627 5619 5610 5601 5592 5582 5573 5563 5554
5642 5640 5640 5639 5640 5642 5645 5649 5654 5659 5664 5667 5670 5672 5675 5677 5680 5681 5682 5683 5683 5682 5680 5678 5676 5673 5669 5665 5661 5659 5655 5650 5645 5638 5630 5622 5613 5605 5596 5587 5578 5569 5559 5549
5638 5639 5638 5639 5640 5642 5645 5649 5653 5657 5660 5663 5666 5668 5671 5673 5675 5677 5678 5678 5678 5677 5676 5673 5670 5667 5664 5661 5659 5656 5652 5647 5640 5632 5624 5616 5608 5600 5592 5583 5574 5565 5556 5546